STARLINK-37469, 69168

Orbit data source: Space-Track

STARLINK-37469, 69168 is a payload satellite owned by SpaceX/Seattle (US) in LEO that was launched on Thu, 21 May 2026 UTC via an FALCON 9 launch vehicle from the Air Force Eastern Test Range (AFETR). Payload-class satellites include a variety of spacecraft equipped with specific instruments for various scientific and technological missions. These include communications satellites like Starlink; space stations such as the ISS; scientific satellites like the Hubble; Earth observation satellites from companies like Planet Labs, Umbra, and HawkEye 360; GPS; miniature CubeSats for education and research; and military/defense satellites.

Loading next visibility...
Identifier
69168, 2026-111W
Orbit
LEO
Country
Flag of USUS
Related business
Manufacturer
SpaceX/Seattle
Mission
Operational spacecraft
Bus & Motor
STARLINK V2MO, Unknown motor
Mass
575 kg wet, ~530 kg dry
Launch date (UTC)
2026-05-21 (1 month ago)
Launch vehicle
FALCON 9
Launch site
Air Force Eastern Test Range (AFETR)
Object type
Payload
Rocket body
Debris
Shape & HBR
Unknown shape, 14.5 m
Radar Cross Section
Large (>1 m²)

Expand to show TLE details & history
Last TLE update: 15 hours ago

TLE from 15 hours ago
0 STARLINK-37469
1 69168U 26111W   26171.20979144  .00062464  00000-0  11202-2 0  9994
2 69168  53.1596 139.0576 0001921  96.1406 263.9822 15.49359208  4700
Epoch: 2026-06-20T05:02Z
TLE epoch observation values (Epoch: 2026-06-20T05:02:05.980Z)
Latitude
-0.00002°
Longitude
155.10498°
Altitude
419.644 km
Speed
7.661 km/s
True Right ascension
09h 16m 13s
True Declination
0° 00' 00"
Sunlit
Object was in daylight at epoch
Visualization orbit readout
Latitude
Unknown
Longitude
Unknown
Altitude
Unknown
Speed
Unknown
Apparent Right ascension
Unknown
Apparent Declination
Unknown
Sunlit
N/A
Visualization observer readout
Local Sidereal Time
07:14:13
Azimuth
Unknown
Elevation
Unknown
Doppler factor
Unknown
Orbital elements
Apogee altitude
420.164 km
Perigee altitude
417.552 km
Semi-major axis
6,796.995 km
Eccentricity
0.00019
Inclination
53.1596°
RAAN
139.0576°
Arg. of periapsis
96.1406°
True anomaly
263.96031°
Mean anomaly
263.9822°
Eccentric anomaly
263.97125°
Mean motion
3.87318 °/min
Orbital period
92.95 mins
BSTAR
0.0011202
Loading maneuver chart data...
Computing Atmospheric mass density...
Loading historical data...
Loading historical data...
Loading historical data...
Loading historical data...
Loading historical data...
Loading historical data...
Loading historical data...

Documentation

Showing up to 5 results
|